Theta_e
291 291 291 290 290 290 290 290 289 289 289 289 289 289 290 290 290 290 290 290 289 289 289 289 289 289 289 289 290 290 291 291 291 291 291 291 291 291 291 291 291 291 291 291 292 292 292 292 292 293 293 293 293 293 294 294 294 294 294 295 295 295 295 295 295 295 295 296 296 296 296 296 296 296 296 296 296 296 296 296 297 297 297 297 297 297
290 290 290 290 289 289 289 289 289 289 289 289 289 289 289 290 290 290 290 289 289 289 289 289 289 289 289 290 290 290 290 290 290 290 290 290 291 291 291 291 291 291 291 291 291 292 292 292 292 292 292 293 293 293 293 293 293 294 294 294 294 294 294 294 294 294 294 294 294 294 294 294 294 295 295 295 295 295 296 296 296 296 296 297 297 297
289 289 289 289 289 289 289 289 289 289 289 289 289 289 289 289 289 290 289 289 289 289 289 289 289 289 290 290 290 290 289 290 290 290 290 290 290 291 291 291 291 291 291 291 291 291 292 292 292 292 292 292 292 293 293 293 293 293 293 293 293 293 293 293 293 293 293 293 293 293 293 293 293 294 294 294 295 295 295 295 295 296 296 296 297 297
288 288 288 288 288 288 288 288 288 288 288 288 289 289 289 289 289 290 289 289 289 289 289 289 289 289 290 290 289 289 289 289 289 290 290 290 290 290 290 291 291 291 291 291 291 291 291 291 292 292 292 292 292 292 292 292 292 292 292 292 292 292 292 292 292 292 292 292 292 293 293 293 293 293 294 294 294 294 294 295 295 295 295 296 296 296
288 287 287 287 288 288 288 288 288 288 288 288 289 289 289 290 290 290 289 289 289 289 289 289 289 290 290 289 289 288 288 288 289 289 289 289 289 290 290 290 291 291 291 291 291 291 292 292 292 292 292 292 292 292 292 292 292 292 292 292 292 292 292 292 292 292 292 292 292 292 292 292 293 293 293 293 293 293 294 294 294 294 295 295 296 296
287 287 287 287 287 287 287 287 287 288 288 288 289 289 290 290 290 289 289 289 289 289 289 289 290 290 289 289 288 288 288 288 288 288 288 288 289 289 289 290 290 291 291 291 291 291 292 292 292 292 292 292 292 292 292 292 292 292 292 292 292 292 292 292 292 292 291 291 292 292 292 292 292 292 292 292 292 292 293 293 293 294 294 295 295 296
287 287 287 287 287 287 287 287 287 288 288 289 289 289 290 289 289 289 289 289 289 289 289 290 289 289 289 288 288 288 287 287 287 287 287 288 288 289 289 290 290 290 290 291 291 291 291 291 291 291 291 291 292 292 292 292 292 292 292 291 291 291 291 291 291 291 291 291 291 291 291 291 291 291 291 291 292 292 292 293 293 294 294 294 295 295
286 286 286 286 286 286 287 287 288 288 288 289 289 289 289 289 289 289 289 289 289 289 290 289 289 289 288 288 288 287 287 287 287 287 287 288 288 288 289 289 290 290 290 290 291 291 291 291 291 291 291 291 292 292 292 292 291 291 291 291 291 291 291 291 290 290 290 290 290 290 290 291 291 291 291 291 292 292 292 293 293 293 294 294 294 295
286 286 286 286 286 287 287 287 288 288 289 289 289 289 289 289 289 289 289 289 289 289 289 289 289 288 288 288 288 287 287 287 287 287 288 288 288 289 289 289 290 290 290 290 290 290 291 291 291 291 291 291 291 291 291 291 291 291 291 290 290 290 290 290 290 290 290 290 290 290 290 290 291 291 291 291 292 292 292 292 292 293 293 293 294 294
286 286 286 286 287 287 287 287 288 288 289 289 289 289 289 289 289 289 289 289 289 289 289 289 288 288 288 288 287 287 287 287 287 288 288 288 288 289 289 289 289 289 289 289 290 290 290 290 290 290 290 290 290 290 290 290 290 290 290 290 290 289 289 289 289 289 289 290 290 290 290 290 290 291 291 291 291 292 292 292 292 292 292 293 293 293
286 286 286 286 287 287 287 288 288 289 289 289 289 289 289 289 289 289 289 289 289 289 289 288 288 288 288 287 287 287 287 287 288 288 288 288 288 289 289 289 288 288 289 289 289 289 288 288 288 288 289 289 289 289 289 289 289 289 289 289 289 289 289 289 289 289 290 290 290 290 290 290 290 291 291 291 291 291 291 292 292 292 292 292 292 293
286 286 287 287 287 288 288 288 288 289 289 289 289 289 290 290 290 290 289 289 289 289 288 288 288 288 287 287 287 287 287 287 288 288 288 289 289 289 289 289 288 288 288 288 288 287 287 287 287 288 288 288 288 288 288 288 288 289 289 289 289 289 289 290 290 290 290 290 290 290 290 290 290 290 290 291 291 291 291 291 291 291 292 292 292 292
287 287 287 287 288 288 288 288 289 289 289 289 290 290 290 290 290 289 289 289 289 288 288 288 288 287 287 287 287 287 287 288 288 288 289 289 289 289 289 288 288 288 288 288 287 287 287 287 287 287 287 287 287 287 287 287 288 288 288 289 289 289 289 289 289 289 289 289 289 289 290 290 290 290 290 291 291 291 291 291 291 291 291 291 292 292
287 287 287 288 288 288 288 288 289 289 289 289 290 290 290 290 290 289 289 289 288 288 288 288 287 287 287 287 287 287 287 288 288 288 288 288 288 288 288 288 288 288 287 287 287 287 286 286 286 286 286 286 286 286 286 287 287 288 288 288 289 289 289 289 289 289 289 289 289 289 290 290 290 290 290 290 290 290 291 291 291 291 291 291 291 291
287 287 287 288 288 288 288 289 289 289 289 289 289 290 290 290 289 289 289 288 288 288 288 288 287 287 287 287 287 287 287 288 288 288 288 288 288 288 288 287 287 287 287 287 286 286 286 286 286 286 286 286 286 286 286 287 287 288 288 289 289 289 289 289 289 289 289 289 289 289 290 290 290 290 290 290 290 290 290 290 291 291 291 291 291 291
287 287 288 288 288 288 288 289 289 289 289 289 289 290 290 290 289 289 289 288 288 288 287 287 287 287 286 286 286 287 287 287 287 287 287 287 287 287 287 287 287 287 286 286 286 286 286 286 286 286 286 286 286 286 287 287 288 288 288 288 289 289 289 289 289 289 289 289 289 289 289 290 290 290 290 290 290 290 290 290 290 290 290 291 291 291
288 288 288 288 288 288 288 289 289 289 289 289 290 290 290 289 289 289 289 288 288 288 287 287 286 286 286 286 286 286 287 287 287 287 287 287 287 287 287 287 286 286 286 286 286 286 286 286 286 286 286 286 286 286 287 287 288 288 288 288 288 289 289 289 289 289 289 289 289 289 289 289 290 290 290 290 290 290 290 290 290 290 290 290 290 290
288 288 288 288 288 288 289 289 289 289 289 290 290 290 290 290 289 289 288 288 288 287 287 287 286 286 286 286 286 286 287 287 287 287 287 287 287 286 286 286 286 286 286 286 286 286 286 286 286 285 285 285 286 286 287 287 287 287 288 288 288 288 289 289 289 289 289 289 289 289 289 289 289 289 289 290 290 290 290 290 290 290 290 290 290 290
288 288 288 288 288 288 289 289 289 289 290 290 290 290 290 289 289 289 288 288 288 287 287 287 287 286 286 286 286 287 287 287 287 287 287 287 286 286 286 286 286 286 286 286 286 286 286 285 285 285 285 285 285 286 286 287 287 287 287 288 288 288 288 288 288 288 289 289 289 289 289 289 289 289 289 289 289 289 289 289 289 290 290 290 290 290
288 288 289 289 289 289 289 289 289 289 290 290 290 290 290 289 289 289 288 288 287 287 287 287 287 287 287 287 287 287 287 287 287 287 287 287 286 286 286 286 286 286 286 285 285 285 285 285 285 285 285 285 285 285 286 286 287 287 287 288 288 288 288 288 288 288 288 288 289 289 289 289 289 289 289 289 289 289 289 289 289 289 290 290 290 290
289 289 289 289 289 289 289 289 289 290 290 290 290 290 289 289 289 288 288 288 287 287 287 287 287 287 287 287 287 287 287 287 287 287 287 287 286 286 286 286 285 285 285 285 285 285 285 285 285 285 285 285 285 285 286 286 287 287 287 287 287 287 287 288 288 288 288 289 289 289 289 289 289 289 289 289 289 289 289 289 289 289 289 289 289 290
289 289 289 289 289 289 289 290 290 290 290 290 290 289 289 289 288 288 288 288 287 287 287 287 287 287 287 287 287 287 287 288 287 287 287 286 286 286 285 285 285 285 285 285 285 285 285 285 285 285 285 285 285 285 286 286 286 286 287 287 287 287 287 287 288 288 288 288 289 289 289 289 289 289 289 289 289 289 289 289 289 289 289 289 289 289
291 291 291 291 290 290 290 290 290 290 290 290 290 289 289 288 288 288 288 288 287 287 287 287 287 287 287 287 287 287 287 287 287 287 286 286 286 285 285 285 285 285 285 285 285 285 284 284 284 284 284 285 285 285 285 285 286 286 286 286 287 287 287 287 288 288 288 288 289 289 289 289 289 289 289 289 289 289 289 289 289 289 289 289 289 289
292 292 292 292 291 291 291 291 291 291 290 290 290 289 289 288 288 288 288 287 287 287 287 287 287 287 287 287 287 287 287 287 287 286 286 286 285 285 285 285 285 285 285 284 284 284 284 284 284 284 284 284 284 285 285 285 285 285 286 286 286 287 287 287 288 288 288 288 288 288 288 288 288 288 288 289 289 289 289 289 289 289 289 289 289 289
291 291 291 291 291 291 291 291 291 290 290 290 289 289 288 288 288 288 287 287 287 287 287 287 287 287 287 287 288 288 287 287 287 286 286 285 285 285 285 285 285 285 284 284 284 284 284 284 284 284 284 284 284 284 284 285 285 285 285 286 286 287 287 287 287 287 287 287 287 287 287 288 288 288 288 288 289 289 289 289 289 289 289 289 289 289
289 289 290 290 290 290 290 290 290 290 290 289 289 289 288 288 288 288 288 287 287 287 287 287 287 287 288 288 288 288 287 287 286 286 286 285 285 285 285 285 285 284 284 284 284 284 284 284 284 284 284 284 284 284 284 284 284 285 285 286 286 286 286 286 286 286 286 286 286 287 287 287 288 288 288 288 288 288 289 289 289 289 289 289 289 289
289 289 289 289 289 290 290 290 290 290 290 290 289 289 289 289 288 288 288 287 287 287 287 287 288 288 288 288 288 287 287 287 286 286 285 285 285 285 285 285 284 284 284 284 284 284 284 284 284 284 284 284 284 284 284 284 284 284 285 285 285 285 285 285 285 285 285 285 286 286 287 287 287 288 288 288 288 288 288 288 288 288 289 289 289 288
289 289 289 289 289 289 289 290 290 290 290 290 290 290 289 289 289 288 288 288 288 288 288 288 288 288 288 288 287 287 287 286 286 286 285 285 285 285 284 284 284 284 284 284 284 284 284 284 284 284 284 284 284 284 284 284 284 284 284 284 284 284 284 284 284 284 285 285 286 286 286 287 287 287 287 288 288 288 288 288 288 288 288 288 288 288
288 288 289 289 289 289 289 289 289 289 289 289 289 289 289 289 289 289 289 288 288 288 288 288 288 288 288 287 287 287 286 286 286 285 285 285 285 284 284 284 284 284 284 283 283 283 283 283 283 283 283 283 283 283 283 283 283 283 283 283 283 283 283 283 283 284 284 285 285 286 286 286 287 287 287 287 288 288 288 288 288 288 288 288 288 288
287 287 288 288 288 288 288 288 288 288 288 288 289 289 289 289 289 289 289 289 289 289 288 288 288 288 287 287 287 286 286 286 285 285 285 285 284 284 284 284 284 284 283 283 283 283 283 283 283 283 283 283 283 283 283 283 283 283 283 283 282 282 282 283 283 284 284 285 285 285 286 286 286 287 287 287 287 287 287 287 287 288 287 287 287 287
287 287 287 287 287 287 287 287 287 287 287 287 288 288 288 288 289 289 289 289 289 289 288 288 288 288 287 287 286 286 286 285 285 285 285 285 284 284 284 284 284 283 283 283 282 282 283 283 283 283 283 283 283 283 282 282 282 282 282 282 282 282 282 282 283 283 284 284 285 285 285 286 286 286 286 286 286 286 287 287 287 287 287 287 287 287
288 287 287 287 287 287 287 287 287 287 287 287 287 287 287 287 288 288 288 288 288 288 288 288 288 287 287 286 286 286 285 285 285 285 285 285 284 284 284 284 283 283 283 283 282 282 282 282 283 282 282 282 282 282 282 282 282 282 282 282 282 282 282 282 282 283 283 284 284 284 284 284 285 285 285 285 285 286 286 286 287 287 287 287 287 287
288 288 288 288 288 288 287 287 287 287 287 287 287 287 287 287 287 287 287 288 288 288 288 288 287 287 286 286 285 285 285 285 285 285 284 284 284 284 284 283 283 283 282 282 282 282 282 282 282 282 282 282 282 282 282 282 282 282 282 282 282 282 282 282 282 283 283 283 283 283 283 283 283 284 284 284 285 285 286 286 286 287 287 287 287 287
289 289 288 288 288 288 288 288 288 287 288 288 288 288 287 287 287 287 287 287 287 288 288 288 287 286 286 285 285 285 284 284 284 284 284 284 284 284 283 283 283 282 282 282 282 281 281 281 281 281 281 281 281 281 281 281 281 281 281 281 281 282 282 282 282 282 282 282 282 282 282 283 283 283 283 284 284 285 285 286 286 286 287 287 287 287
289 289 288 288 288 288 287 287 287 288 288 288 288 287 287 287 287 287 287 287 287 287 287 287 287 286 286 285 285 284 284 284 284 284 284 284 284 283 283 282 282 282 282 281 281 281 281 281 281 281 281 281 281 281 281 281 281 281 281 281 281 281 281 281 281 281 281 282 282 282 282 282 283 283 283 283 284 284 285 285 286 286 286 286 287 287
288 288 288 288 288 287 287 287 287 287 287 287 287 287 287 287 287 287 287 287 287 287 287 287 287 286 286 285 285 284 284 284 284 284 284 284 283 283 282 282 282 282 281 281 281 280 280 280 280 280 280 280 280 281 281 281 281 281 281 281 281 281 281 281 281 281 281 281 282 282 282 282 283 283 283 283 284 284 285 285 285 285 286 286 286 286
288 288 288 288 288 288 287 287 287 287 287 287 287 287 287 287 287 287 287 287 287 287 287 286 286 286 286 285 285 285 284 284 284 284 283 283 283 282 282 282 281 281 281 280 280 280 280 280 280 280 280 280 280 280 280 280 280 280 280 280 280 280 280 280 281 281 281 281 282 282 282 282 283 283 283 283 283 284 284 284 284 284 285 285 285 286
289 289 288 288 288 288 288 288 288 288 288 288 288 287 287 287 287 287 287 287 287 287 286 286 286 286 285 285 285 284 284 284 283 283 283 283 282 282 282 281 281 281 280 280 280 280 280 280 280 280 280 280 280 280 280 280 280 280 280 280 280 280 280 280 281 281 281 281 282 282 282 282 282 282 283 283 283 283 283 283 284 284 284 284 285 285
289 289 289 289 288 288 288 288 288 288 288 288 288 288 288 287 287 287 287 287 286 286 286 286 285 285 285 284 284 284 283 283 283 283 283 282 282 282 281 281 280 280 280 280 279 279 279 279 279 279 279 279 279 279 279 279 279 279 279 279 280 280 280 281 281 281 281 281 281 281 282 282 282 282 282 283 283 283 283 283 283 284 284 284 284 284
290 290 290 290 289 289 289 289 288 288 288 288 288 288 288 287 287 287 286 286 286 286 285 285 284 284 284 284 283 283 283 283 283 282 282 282 281 281 281 280 280 280 280 279 279 279 279 279 279 279 279 279 279 279 279 279 279 279 279 280 280 280 280 281 281 281 281 281 281 281 282 282 282 282 282 283 283 283 283 283 283 283 283 284 284 284
290 291 290 290 290 290 290 289 289 289 288 288 288 288 287 287 286 286 286 286 285 285 285 284 284 283 283 283 283 283 283 282 282 282 281 281 281 281 280 280 280 279 279 279 279 279 279 279 279 279 279 279 279 279 279 279 279 279 280 280 280 280 280 280 280 281 281 281 281 282 282 282 282 282 282 282 282 282 283 283 283 283 283 283 283 284
289 290 290 290 290 290 290 289 289 289 288 288 288 287 287 287 286 286 286 285 285 284 284 284 283 283 283 283 282 282 282 282 282 281 281 281 280 280 280 280 279 279 279 279 279 279 279 279 279 279 279 279 279 279 279 279 279 279 280 280 280 280 280 280 281 281 281 281 281 281 281 281 282 282 282 282 282 282 282 283 283 283 283 283 284 284
289 289 289 289 289 289 289 289 289 288 288 288 287 287 287 286 286 286 285 285 284 284 284 283 283 283 282 282 282 282 282 281 281 281 281 280 280 280 280 279 279 279 279 279 279 279 279 279 279 279 279 279 279 279 279 279 279 279 280 280 280 280 280 281 281 281 281 281 281 281 281 281 281 281 282 282 282 282 282 282 283 283 283 283 283 284
289 289 289 289 289 289 289 288 288 288 287 287 287 287 286 286 286 285 285 284 284 284 283 283 283 282 282 281 281 281 281 281 281 280 280 280 280 280 280 280 280 280 279 279 279 279 279 279 279 279 279 279 279 279 279 279 279 280 280 280 280 280 280 281 281 281 281 281 281 281 281 281 281 282 282 282 282 282 282 283 283 283 283 283 284 284
289 289 289 289 289 289 289 288 288 287 287 287 286 286 286 286 285 285 284 284 284 283 283 283 282 282 281 281 281 281 281 280 280 280 280 279 279 279 280 280 280 280 280 280 279 279 279 279 279 279 279 279 279 280 280 280 280 280 280 280 280 280 280 280 280 280 281 281 281 281 281 281 282 282 282 282 282 283 283 283 283 283 284 284 284 284
288 289 289 289 289 289 288 288 287 287 286 286 286 286 285 285 285 284 284 284 283 283 283 282 282 281 281 281 281 280 280 280 280 279 279 279 279 279 280 280 280 280 280 280 280 280 280 280 280 280 280 280 280 280 280 280 280 280 280 280 280 280 280 280 280 281 281 281 281 281 281 282 282 282 282 283 283 283 283 283 284 284 283 283 283 283
288 288 288 288 288 288 288 287 287 286 286 285 285 285 285 284 284 284 284 283 283 283 282 282 281 281 281 280 280 280 280 279 279 279 279 279 279 279 279 280 280 280 280 280 280 280 280 280 280 280 280 280 280 280 280 280 280 280 280 280 280 280 280 280 281 281 281 281 281 281 282 282 282 283 283 283 283 283 283 283 283 283 283 283 283 283
288 288 288 288 288 287 287 287 286 286 285 285 285 285 284 284 284 284 283 283 283 282 282 281 281 281 280 280 280 279 279 279 279 279 279 279 279 279 279 279 280 280 280 280 280 280 280 280 280 280 280 280 280 280 280 280 280 280 280 280 280 280 280 281 281 281 281 281 282 282 282 282 283 283 283 283 283 283 283 283 283 283 282 282 282 282
288 288 287 287 287 287 287 286 286 286 285 285 284 284 284 284 284 283 283 283 282 282 282 281 281 280 280 279 279 279 279 279 279 279 279 279 279 279 279 279 279 279 279 279 280 280 280 280 280 280 280 280 280 281 280 280 280 280 280 280 280 281 281 281 281 281 282 282 282 283 283 283 283 283 283 282 282 282 282 282 282 282 282 282 282 282
287 287 287 287 287 286 286 286 286 285 285 285 284 284 284 284 283 283 283 282 282 282 281 281 280 280 279 279 279 279 279 279 279 279 279 279 279 279 279 279 279 279 279 279 280 280 280 280 280 280 280 280 280 280 280 280 280 280 280 281 281 281 281 281 282 282 282 282 282 282 282 282 282 282 282 282 282 282 282 282 282 282 282 282 282 282
287 287 287 287 286 286 286 286 286 285 285 285 284 284 284 283 283 283 282 282 281 281 281 280 280 279 279 279 279 279 279 279 278 278 278 279 279 279 279 279 279 279 279 280 280 280 280 280 279 279 279 280 280 280 280 281 281 281 281 281 281 281 281 282 282 282 282 282 282 282 282 281 281 281 281 281 281 281 281 281 281 281 281 281 281 281
Wind_Speed
12 12 13 14 14 15 15 15 15 14 15 14 14 14 14 14 14 15 16 17 17 17 17 16 16 16 15 15 15 15 15 16 16 17 17 18 18 18 18 18 19 19 19 19 18 18 18 17 17 17 16 16 16 16 16 16 16 16 16 16 17 17 17 18 18 18 19 19 19 19 19 19 19 19 19 19 19 18 18 18 18 18 18 18 17 17
13 14 14 15 15 15 16 15 14 14 14 15 15 15 15 15 16 16 17 17 16 16 16 16 15 15 15 15 15 15 16 16 17 17 18 18 18 18 19 19 19 19 19 19 18 18 17 17 16 16 16 16 16 16 16 16 17 17 17 17 17 17 18 18 18 18 19 19 19 20 20 20 20 19 19 19 19 19 19 19 19 18 18 18 18 18
13 13 14 14 14 14 15 15 15 14 14 15 16 16 16 16 16 16 16 16 16 16 15 15 15 14 14 15 15 16 17 17 17 18 18 18 19 19 19 19 19 19 19 19 18 18 17 16 16 15 15 15 16 16 17 17 17 18 18 18 18 18 18 18 19 19 19 19 19 20 20 20 20 20 19 19 19 19 19 19 19 18 18 18 18 18
12 12 14 14 14 13 14 14 15 15 16 16 16 16 15 15 15 16 15 16 16 16 16 15 14 14 14 15 16 17 17 17 17 18 18 19 19 19 19 19 19 18 18 18 17 17 16 16 16 15 16 16 16 17 17 18 18 18 19 19 19 19 19 19 19 19 19 19 19 19 19 19 19 19 19 19 19 19 19 19 19 19 18 18 18 18
12 12 13 13 13 13 15 16 16 17 16 15 15 14 14 14 14 15 15 16 16 16 16 15 14 14 15 16 17 17 17 17 17 18 18 18 18 18 18 18 18 17 17 16 16 16 16 16 16 16 17 17 17 18 18 18 19 19 19 19 19 19 19 19 19 18 18 18 18 18 18 18 18 19 19 19 19 19 19 19 19 19 19 19 18 18
13 12 12 13 13 15 16 18 17 17 16 15 14 13 13 13 14 15 16 16 16 15 15 14 14 14 15 16 17 17 17 18 18 18 18 18 18 17 17 17 17 16 16 16 16 16 16 16 17 17 18 18 18 18 18 19 19 19 19 19 19 19 18 18 18 18 18 17 17 17 17 17 18 18 18 19 19 19 19 19 19 19 19 19 19 19
14 13 14 14 15 16 17 18 16 15 14 15 15 14 14 14 14 15 16 15 15 14 13 13 13 13 14 15 16 17 19 19 20 19 19 18 17 16 16 16 16 16 16 16 16 16 17 17 18 18 19 19 19 19 19 19 19 19 19 19 18 18 18 18 18 17 17 17 16 16 16 17 17 18 18 18 18 19 19 19 19 19 19 19 19 19
14 15 15 15 16 17 17 17 15 13 12 13 15 15 15 15 15 16 16 14 13 12 12 12 13 13 14 16 17 19 20 21 21 20 18 17 16 16 16 16 16 16 16 16 17 17 17 18 18 19 19 20 20 20 20 20 19 19 19 19 18 18 18 17 17 17 16 16 15 15 15 16 16 17 17 18 18 18 19 19 19 19 19 19 19 20
15 15 16 15 16 16 17 17 15 13 12 12 14 15 16 16 17 17 16 13 11 10 10 12 13 15 16 17 19 20 21 20 19 18 17 16 15 15 15 15 15 16 16 16 17 17 18 18 19 19 20 20 20 20 20 19 19 19 18 18 18 18 17 17 16 16 15 15 15 15 15 15 16 17 17 18 18 19 19 19 19 20 20 20 20 20
15 15 16 16 16 15 16 17 16 14 12 12 13 14 15 16 17 17 15 13 10 9 10 12 15 16 18 19 20 21 21 19 17 16 14 14 14 14 14 15 15 16 16 16 16 17 18 18 19 19 20 20 20 20 19 19 18 18 18 18 18 17 17 16 16 16 15 15 15 15 15 16 16 17 17 18 19 19 20 20 20 20 20 20 21 21
14 15 15 16 15 15 15 16 15 14 13 14 14 14 14 14 14 14 14 12 11 11 12 14 15 16 18 19 21 21 20 18 16 15 14 13 13 14 14 15 15 15 16 16 17 18 19 20 20 20 20 20 20 19 19 19 18 18 18 18 17 17 16 16 16 16 15 15 16 16 16 16 17 17 18 18 19 19 20 20 21 21 21 21 21 21
13 13 13 14 13 13 13 13 13 13 13 13 13 13 13 12 11 11 11 12 13 14 15 15 15 15 16 19 20 20 19 17 16 15 14 13 13 14 14 15 16 16 17 19 20 21 22 22 21 20 20 20 19 19 19 19 19 18 18 17 17 16 16 16 16 16 16 16 17 17 17 17 17 18 18 18 19 20 20 21 21 21 21 21 21 21
13 13 12 13 12 12 12 12 12 12 12 11 12 12 11 10 10 10 11 12 13 14 15 15 16 16 17 17 18 18 17 16 16 15 14 13 13 14 15 16 17 18 20 22 23 24 24 23 22 21 20 20 20 20 20 19 19 18 18 17 17 16 16 16 17 17 17 18 18 18 18 18 18 18 18 19 19 20 20 20 21 21 21 21 21 21
13 13 12 12 12 12 12 12 12 12 11 11 11 12 12 12 11 12 12 12 13 14 14 15 16 17 17 16 15 14 14 15 15 14 14 13 13 14 15 17 19 21 22 23 24 24 24 23 22 22 21 21 21 20 20 19 19 18 18 17 17 17 17 18 18 19 19 19 19 19 19 19 19 18 19 19 19 20 20 20 21 21 21 21 21 21
13 12 12 12 12 12 11 11 12 12 12 12 13 13 13 13 13 12 12 12 13 14 14 15 16 16 15 14 12 11 11 13 15 15 16 16 16 16 17 20 22 23 23 23 24 24 23 22 22 22 21 21 20 20 20 19 19 19 18 18 19 19 19 20 20 20 20 20 20 20 20 19 19 19 19 19 19 19 20 20 20 21 21 21 21 21
13 12 12 12 12 12 12 12 12 13 13 13 13 13 13 13 12 12 12 12 13 14 14 14 15 15 14 12 10 9 10 13 15 17 18 18 19 19 19 21 23 24 23 23 23 23 23 22 22 21 21 21 21 20 19 19 19 19 20 20 20 21 21 21 21 21 21 21 21 21 20 20 20 20 20 19 19 19 20 20 20 21 21 21 21 21
13 13 13 13 13 13 13 13 13 13 13 13 13 13 12 12 12 12 12 13 13 13 12 12 11 9 10 13 12 10 11 13 15 17 18 19 20 20 19 20 21 22 23 22 22 22 22 22 22 21 21 21 20 20 19 20 20 20 21 21 22 22 22 22 21 21 21 21 21 21 21 21 21 20 20 20 19 19 20 20 20 20 21 21 21 21
14 14 14 13 13 13 13 12 12 12 12 13 12 12 12 12 13 13 12 12 12 12 12 12 11 9 9 11 13 13 13 14 16 18 19 20 21 20 19 19 20 21 22 22 22 22 22 22 21 21 21 21 20 20 20 21 21 21 22 22 22 22 22 22 22 22 22 22 22 22 22 21 21 21 20 20 20 20 20 20 20 21 21 21 21 21
15 15 14 14 14 14 14 13 13 13 13 12 12 12 13 13 13 13 13 13 13 13 13 13 13 13 13 14 15 15 14 15 17 19 20 21 21 21 19 18 19 20 21 22 22 21 21 21 21 22 22 22 22 21 21 21 21 22 22 22 22 22 23 23 23 23 23 23 23 23 22 22 21 21 20 20 20 20 20 20 20 21 21 21 21 21
16 16 16 15 15 15 15 15 14 13 13 12 12 12 13 13 14 14 14 14 14 14 14 14 15 15 15 16 16 16 15 16 17 18 20 21 21 20 18 17 18 19 21 21 21 21 21 22 22 23 23 23 23 22 21 21 21 22 22 23 23 24 24 24 24 24 24 24 23 23 22 22 21 21 21 21 20 20 20 21 21 21 21 21 21 22
19 19 19 18 16 16 16 16 15 14 13 12 12 13 14 14 14 15 15 15 15 15 15 15 15 16 16 17 17 17 17 17 18 18 19 20 20 18 17 16 17 19 21 22 21 21 21 22 23 24 24 24 23 22 21 21 22 22 23 24 24 24 25 25 24 24 24 23 23 23 22 22 22 21 21 21 21 21 21 21 21 21 21 21 21 22
21 22 22 21 20 19 19 19 18 16 15 14 14 14 15 15 15 16 16 16 15 16 16 17 17 18 19 20 21 21 21 20 19 18 18 17 18 18 17 16 17 19 21 21 22 22 22 23 24 24 24 23 22 22 22 22 23 23 24 24 25 25 25 24 24 24 23 23 23 22 22 22 22 22 22 22 22 22 22 22 21 21 21 21 21 21
24 23 23 22 22 22 22 21 20 18 17 17 17 17 17 17 17 17 17 16 16 17 18 19 20 22 23 24 24 24 23 20 18 17 15 13 16 18 17 17 18 20 21 22 22 23 23 24 24 24 24 23 23 22 22 23 23 24 24 24 24 24 24 23 23 22 22 22 22 22 22 22 23 23 23 23 22 22 22 22 22 21 21 21 21 21
24 23 23 22 21 21 21 21 20 19 19 18 18 19 19 18 18 18 17 17 17 18 19 20 21 22 23 22 22 21 19 15 13 13 13 13 16 19 19 19 19 20 22 22 22 22 23 24 24 24 24 24 24 24 24 24 24 24 23 23 23 23 22 22 21 21 21 21 22 22 23 23 23 24 23 23 23 23 22 22 22 22 21 21 21 21
25 25 24 23 22 22 21 21 20 20 19 19 19 19 19 18 18 18 18 18 18 17 18 18 19 19 20 19 17 15 14 11 10 11 12 14 17 20 20 19 19 20 22 22 22 22 22 24 24 24 24 25 25 25 25 24 23 23 22 22 21 21 21 20 20 21 22 22 23 24 24 24 24 24 24 23 23 22 22 22 22 22 22 22 22 22
27 26 26 25 24 24 23 22 21 21 20 19 18 18 18 17 17 17 17 17 16 16 16 16 17 17 17 15 13 12 12 11 11 11 13 14 17 20 21 19 18 19 21 22 22 22 22 23 24 24 24 25 25 25 24 23 22 21 20 20 20 20 20 21 22 23 24 25 25 25 25 24 24 24 23 23 22 22 22 22 22 22 22 22 22 22
26 26 25 25 25 24 24 23 23 22 21 20 19 18 18 17 17 16 16 16 15 14 14 14 14 14 14 12 11 12 12 12 12 13 14 16 17 19 20 19 18 19 21 22 23 22 22 22 23 23 24 24 24 23 22 21 20 19 19 19 20 21 23 24 25 26 26 25 25 24 24 24 23 23 23 22 22 22 22 22 22 22 22 22 22 22
24 24 25 25 24 24 24 24 24 23 23 22 21 20 19 19 18 17 16 16 15 14 14 14 12 10 10 10 11 13 14 15 15 15 16 16 16 17 18 18 18 18 20 22 23 23 22 22 22 23 23 23 22 21 20 19 19 19 20 22 24 25 26 27 26 25 25 24 24 23 23 23 22 22 22 22 22 22 22 22 22 22 21 21 22 22
22 23 23 24 24 24 23 23 23 23 23 23 22 21 21 21 20 20 19 17 15 14 15 15 13 11 10 12 14 17 17 17 17 16 16 15 15 16 17 17 18 18 19 21 23 23 22 20 20 20 20 20 20 19 19 20 22 23 25 26 27 27 27 26 25 24 23 23 23 22 22 22 22 22 22 22 22 22 21 21 21 21 21 21 22 23
21 21 22 22 22 22 22 23 23 23 22 22 22 21 21 22 22 22 21 19 17 16 16 16 14 13 12 13 14 14 15 16 15 12 11 12 13 15 17 18 18 18 18 17 16 15 17 19 18 17 17 18 19 20 22 24 25 26 27 27 27 26 25 24 23 22 22 22 22 21 21 21 21 21 21 21 22 22 22 21 21 21 21 22 22 23
20 21 21 21 21 21 21 22 22 21 21 20 20 20 20 21 22 23 22 20 19 19 18 17 15 15 14 12 8 6 8 13 13 10 11 12 13 16 17 18 19 19 17 14 8 5 9 15 17 17 16 19 21 23 25 26 26 26 26 26 25 25 24 22 22 21 20 20 20 20 20 21 21 21 22 22 22 22 22 21 21 20 21 21 22 23
20 20 21 21 20 20 20 21 21 21 20 19 19 18 19 19 20 22 22 22 22 21 20 19 18 17 16 14 10 8 11 15 16 14 14 14 16 17 18 18 18 19 17 15 12 9 6 9 16 21 21 22 23 25 25 25 24 24 24 24 24 24 23 22 20 20 20 20 20 20 21 21 22 22 22 22 22 22 21 21 20 20 20 21 22 22
19 19 19 19 19 19 19 20 20 20 20 20 19 18 18 18 19 20 21 22 23 23 22 21 19 18 18 18 17 17 19 20 19 17 16 15 16 17 18 18 18 19 19 18 17 16 13 14 18 23 24 24 24 24 24 24 23 23 23 23 24 24 23 21 20 20 21 22 23 23 23 23 23 23 22 22 22 21 21 20 20 19 19 20 21 22
18 18 18 18 18 18 19 19 20 20 20 20 20 19 19 19 19 19 20 22 23 24 24 22 21 20 19 18 18 20 21 21 20 18 16 15 15 16 18 18 19 19 19 18 18 18 18 19 20 21 23 24 24 24 23 23 23 22 21 21 21 22 22 21 21 22 24 25 25 26 25 25 24 23 22 22 21 21 20 20 19 19 19 20 21 22
19 19 19 19 19 20 20 21 21 21 21 21 21 20 20 20 20 20 21 21 23 24 24 24 24 22 21 19 18 19 20 21 19 18 16 16 16 17 18 18 19 19 18 18 17 16 16 19 20 20 21 23 24 24 23 21 21 20 20 19 20 21 22 22 23 24 25 25 26 25 25 25 24 23 23 22 21 20 20 20 20 21 21 21 21 22
21 21 21 20 20 21 21 21 22 22 22 22 22 22 22 22 22 22 22 22 23 24 25 25 25 25 24 23 22 22 23 24 22 21 19 19 19 18 18 19 19 19 18 18 18 17 16 18 20 21 20 20 21 22 22 21 20 19 20 20 21 22 22 23 24 24 25 25 25 24 24 24 23 23 23 22 21 21 21 22 22 22 22 21 21 21
22 22 21 21 21 21 21 22 22 22 23 24 24 24 24 24 24 24 24 24 24 24 25 25 25 25 25 25 25 26 26 26 26 25 23 22 21 20 19 20 20 20 18 18 18 17 17 17 18 20 19 18 17 19 21 22 22 21 21 21 22 22 23 23 23 23 23 23 23 23 23 23 23 24 24 23 23 23 23 23 23 22 22 21 21 21
21 21 21 21 21 22 22 22 23 23 24 24 25 25 24 24 24 24 24 24 24 24 24 24 24 24 24 25 25 26 27 27 27 27 26 25 24 22 22 22 22 21 19 18 18 17 16 15 14 13 15 17 19 21 22 23 23 23 22 22 22 22 22 22 21 21 21 22 23 23 23 23 24 24 24 24 24 24 24 24 23 23 22 22 22 22
18 19 19 20 21 21 22 23 23 24 24 24 24 24 24 24 23 23 23 23 23 23 23 23 23 23 23 24 24 25 26 27 27 27 27 26 26 25 24 23 22 21 20 19 18 18 17 16 15 13 14 16 20 22 23 22 22 22 23 23 23 22 21 20 19 20 21 22 24 24 24 24 24 24 24 24 24 24 24 24 24 23 23 23 23 23
15 16 17 18 19 20 21 22 22 22 22 22 21 21 21 21 20 20 20 20 21 21 21 21 21 22 23 24 24 25 26 26 26 26 26 26 26 25 25 24 23 22 21 19 18 18 17 17 18 18 19 18 19 21 23 23 22 22 22 21 21 21 20 20 21 22 22 23 23 23 24 23 23 23 23 23 24 24 24 24 24 24 24 24 24 24
17 16 16 16 16 17 18 19 19 19 19 18 18 18 18 18 18 18 18 19 19 20 20 20 20 21 23 24 25 25 25 25 25 25 25 25 25 24 24 25 24 22 20 19 19 18 18 18 19 20 20 20 21 22 23 24 23 22 21 20 21 23 24 23 22 21 21 21 21 22 23 23 23 23 24 24 25 25 25 25 26 26 25 25 24 24
20 20 19 18 17 16 16 15 15 15 16 16 16 17 17 17 17 17 18 18 19 19 19 19 20 21 23 24 25 24 24 24 24 24 24 24 24 24 24 24 24 22 20 19 19 19 19 19 19 19 20 20 20 21 22 24 24 23 21 21 22 24 24 23 21 19 20 21 22 23 23 24 24 25 25 25 26 26 26 26 26 26 25 24 24 24
20 21 22 21 19 18 16 15 14 15 15 16 17 18 18 18 18 18 18 19 19 19 19 19 19 20 20 22 23 23 23 23 23 23 23 23 22 22 22 22 23 22 21 20 19 19 20 19 19 20 20 20 20 21 22 24 24 24 23 22 22 21 20 22 22 21 21 22 23 24 24 24 25 25 26 26 26 26 26 26 25 25 24 24 24 25
20 21 21 21 20 18 17 16 16 16 16 17 18 19 19 19 19 19 19 19 19 19 18 18 18 18 19 20 21 22 22 22 22 22 21 21 20 19 19 20 20 21 21 21 20 19 19 19 20 20 19 19 20 21 22 23 24 24 24 23 22 21 21 22 24 24 24 24 24 24 24 25 26 26 27 26 26 26 25 25 25 25 24 24 24 25
21 21 20 19 18 17 17 17 17 18 18 18 19 20 20 20 20 19 19 19 19 18 18 17 16 15 16 18 19 20 20 21 21 21 20 19 18 17 17 17 19 20 21 21 21 20 19 19 20 20 20 20 20 21 22 23 23 24 25 24 23 23 24 24 25 24 24 24 24 25 25 25 26 26 26 26 25 24 24 24 24 24 24 24 24 25
22 21 20 19 19 18 17 17 18 18 19 19 20 20 20 20 19 19 19 18 18 18 18 17 15 14 15 16 18 19 19 20 20 20 20 19 17 16 15 15 16 18 19 20 21 21 21 21 21 21 21 21 21 22 23 23 23 24 24 24 24 23 24 24 24 24 24 24 24 25 25 25 25 25 24 25 25 25 24 24 24 24 25 25 25 25
23 22 21 20 19 19 18 17 17 17 18 19 19 19 19 19 18 18 18 18 18 18 17 16 16 16 17 17 18 18 18 19 20 20 19 18 16 14 14 14 15 16 17 19 20 21 22 23 23 22 22 21 21 22 23 23 23 23 24 24 24 23 23 24 24 24 24 24 24 25 26 25 24 23 24 24 25 25 25 25 25 25 26 26 26 26
22 21 21 20 19 18 18 17 16 16 17 17 18 18 18 18 18 18 18 18 18 17 16 15 15 16 17 18 18 18 18 19 19 19 18 17 15 15 14 14 14 15 16 18 19 20 22 23 24 24 23 22 21 22 24 24 24 23 23 24 23 23 24 25 25 25 24 24 25 25 25 23 22 22 23 24 26 27 27 27 27 27 26 26 26 26
20 20 20 19 18 18 17 16 16 16 17 17 17 18 18 18 18 18 18 18 18 17 16 16 16 16 16 17 17 18 18 18 18 18 17 16 15 15 14 14 14 15 16 18 19 20 21 22 23 23 23 23 23 23 24 24 24 24 23 23 23 23 24 24 25 24 24 24 24 24 23 22 22 23 24 25 26 28 29 29 28 27 26 25 25 25
18 19 19 18 18 17 17 17 17 17 17 17 18 18 18 18 18 18 18 18 17 17 17 16 16 15 15 16 17 17 17 17 17 17 16 15 14 14 14 14 14 15 15 16 16 16 17 18 19 20 21 21 22 23 23 24 24 23 23 23 22 22 22 23 24 23 23 23 23 24 23 24 24 24 24 24 25 27 28 29 28 27 26 25 24 25
18 18 18 19 19 19 19 18 18 18 18 18 18 18 18 17 17 17 17 17 17 17 17 16 16 15 15 16 16 16 16 16 16 16 15 15 14 14 14 14 14 14 13 13 13 13 13 13 14 17 19 18 18 19 21 22 22 22 21 21 21 21 21 22 23 23 23 24 24 25 25 25 25 24 23 23 24 25 26 27 28 27 26 25 24 25
Wind_Direction
277 280 282 284 290 295 296 296 299 301 302 303 303 303 301 298 295 294 295 299 302 305 308 308 309 309 310 310 310 310 310 310 309 309 308 307 305 304 303 302 302 301 301 301 300 298 297 296 295 294 294 293 293 293 293 293 293 292 292 292 291 290 291 291 291 291 291 291 291 291 290 290 289 289 288 288 287 286 285 284 284 283 282 281 281 280
280 282 284 287 291 294 294 295 296 297 299 299 299 299 299 298 297 297 300 303 306 308 309 310 310 309 309 309 309 309 310 310 310 309 308 307 306 305 304 303 302 302 301 301 300 299 298 297 295 294 294 294 294 294 294 294 294 294 293 292 291 290 290 290 290 290 290 291 290 290 290 290 290 290 289 288 287 286 285 284 284 283 282 281 281 280
287 290 290 292 293 294 294 294 294 295 295 296 297 298 299 299 300 302 304 305 307 309 310 311 311 310 309 307 307 308 311 311 311 310 309 307 306 305 304 304 303 302 302 301 300 299 298 297 296 295 295 295 295 295 295 295 294 294 293 292 291 291 290 289 289 290 289 290 290 290 290 289 289 289 288 287 287 286 286 284 284 283 282 282 281 280
286 291 294 296 295 292 290 291 293 294 295 296 297 299 301 301 303 304 305 306 307 309 310 312 311 309 306 306 308 310 313 314 312 311 309 308 307 307 306 305 304 304 303 302 301 300 299 297 296 296 296 295 295 295 295 295 294 294 293 292 291 291 290 289 289 289 289 290 290 290 290 290 289 289 289 288 287 287 286 285 284 284 283 282 281 281
285 289 293 296 296 293 291 291 294 297 299 300 301 302 303 303 304 304 305 306 307 308 310 310 309 307 305 307 310 314 316 315 313 311 310 309 309 308 308 307 307 306 305 304 303 301 300 299 297 297 296 296 296 296 295 295 295 294 294 293 292 292 291 290 289 289 289 289 290 290 290 290 290 289 289 288 288 287 286 285 284 283 283 282 282 281
283 286 290 292 292 292 293 295 299 303 305 305 305 305 304 303 302 302 304 306 307 309 310 309 307 305 306 309 313 316 316 315 313 312 311 310 310 309 309 309 309 308 308 306 305 303 301 300 299 298 298 297 296 296 296 296 295 295 295 294 293 293 292 291 290 290 289 289 289 290 290 290 290 290 289 289 288 287 287 286 285 284 283 283 282 282
283 284 287 288 289 291 294 298 303 307 307 306 305 304 302 300 300 301 304 307 309 311 310 309 306 306 308 311 314 315 315 315 314 314 313 312 311 311 310 310 310 309 308 307 306 304 303 302 301 300 300 299 298 297 297 296 296 295 295 294 294 293 293 292 291 290 289 289 289 290 290 291 291 291 291 290 289 288 288 286 286 285 284 283 283 283
282 285 287 288 290 293 295 298 303 306 304 303 302 302 301 300 300 302 306 310 312 311 310 308 306 306 309 311 313 315 316 316 317 317 316 316 314 313 312 311 310 310 309 308 307 306 305 304 303 302 302 301 300 299 298 297 296 295 295 294 294 293 293 292 291 291 290 290 290 291 291 292 292 292 292 291 290 289 288 287 286 285 285 284 284 283
277 283 286 287 289 291 292 295 300 304 302 298 296 297 299 300 301 303 306 309 309 308 306 307 307 308 309 311 314 317 318 319 319 318 316 314 313 313 312 311 311 310 310 309 309 308 307 306 305 304 303 302 301 300 300 298 297 296 295 294 294 294 293 292 291 291 291 291 291 292 292 293 293 293 292 292 291 290 289 288 287 286 285 285 284 284
271 276 281 285 287 287 287 289 295 302 301 295 291 291 292 295 297 299 300 302 303 304 305 307 309 310 311 313 316 319 321 322 322 319 315 311 310 310 310 310 310 310 310 310 309 308 308 307 306 305 304 303 303 302 301 300 299 297 296 295 294 294 294 293 292 292 292 292 292 293 293 294 293 293 293 292 291 290 289 288 288 287 286 285 285 284
268 272 276 280 284 286 284 285 291 298 299 296 292 290 289 290 292 293 295 300 305 307 309 309 310 310 312 314 317 320 323 323 323 322 319 314 311 309 308 309 310 310 310 309 308 308 308 307 306 306 305 304 303 303 302 301 300 298 297 296 295 294 294 293 293 292 292 292 293 294 294 294 294 293 293 292 291 290 290 289 288 287 286 286 285 284
264 269 273 277 281 283 283 285 289 293 296 294 292 290 288 289 290 292 295 303 307 310 311 311 309 309 310 313 316 319 322 322 321 321 320 317 314 312 311 311 310 309 308 307 307 308 308 308 307 306 305 304 303 303 302 301 300 299 298 296 295 294 293 292 292 291 291 292 293 294 294 294 294 294 293 292 292 291 290 289 288 287 286 286 285 284
260 265 269 273 276 278 281 285 289 292 292 291 288 288 291 293 295 295 296 300 304 307 310 310 309 308 309 312 315 318 320 319 320 319 318 316 315 315 313 311 309 307 306 307 307 309 310 310 309 307 306 305 305 304 303 302 300 298 297 296 294 294 293 292 291 291 292 293 293 294 294 294 294 294 293 293 292 291 290 289 288 288 287 286 285 285
256 260 264 267 269 272 276 279 282 284 286 286 286 288 291 294 295 296 298 299 301 305 308 308 307 308 309 312 315 318 318 318 318 318 316 314 313 313 311 309 307 306 307 308 308 309 311 311 310 310 309 309 308 307 306 304 301 298 296 295 294 294 293 292 292 292 292 293 293 294 294 294 294 294 294 293 293 292 291 290 289 288 287 286 286 285
251 255 258 260 263 267 270 273 275 278 281 283 286 287 289 290 292 295 298 300 303 306 309 309 307 307 307 310 315 319 317 315 316 316 314 311 308 307 308 308 307 308 308 308 308 309 312 312 311 310 311 311 310 308 306 302 299 297 296 295 294 294 293 293 293 293 293 293 293 294 294 294 294 294 294 293 293 292 291 290 289 288 287 286 286 285
245 248 252 256 260 263 265 268 271 275 279 283 285 286 287 288 291 294 297 299 303 307 310 311 311 309 307 309 313 316 314 313 313 313 313 310 307 306 308 309 309 308 308 307 307 308 311 312 311 311 311 310 309 307 303 300 298 296 296 295 294 294 293 293 293 293 293 293 294 294 294 294 294 294 293 293 293 292 291 290 289 288 287 286 286 285
242 245 249 254 258 261 264 266 269 273 278 282 283 283 284 286 289 292 295 297 301 305 306 308 309 309 308 309 310 313 315 315 313 312 310 307 306 306 309 309 306 304 304 304 305 307 309 310 310 310 309 309 307 305 301 300 298 297 296 295 295 294 294 294 294 294 294 294 294 294 294 294 293 293 293 293 292 292 291 290 289 289 288 287 286 285
242 245 249 253 257 261 264 268 271 274 278 280 280 281 281 282 285 288 290 293 297 299 301 301 299 297 299 303 305 309 316 316 313 311 308 305 304 306 308 307 304 302 302 302 304 306 307 307 308 307 307 306 304 302 301 299 298 298 297 296 296 296 296 296 295 295 295 294 294 294 293 293 293 293 293 293 292 292 291 290 290 289 288 287 286 285
244 246 248 251 255 260 264 266 270 273 275 276 278 280 280 281 283 285 287 289 290 292 293 293 292 291 291 291 296 303 312 313 312 309 307 303 303 305 307 307 303 301 300 300 303 305 305 306 305 305 304 302 301 300 300 299 298 298 297 297 297 297 297 297 297 296 295 295 294 294 293 293 293 292 292 292 292 292 291 291 290 289 288 287 287 286
247 248 248 250 255 259 261 262 263 265 267 271 274 277 279 281 283 284 285 286 286 286 286 285 284 285 287 289 293 300 307 310 309 307 303 300 300 302 306 307 304 301 300 300 302 304 304 304 303 303 302 301 301 300 299 299 298 298 298 298 298 298 298 298 297 297 296 295 294 293 293 293 292 292 292 292 292 292 291 290 290 289 288 287 287 286
250 251 251 251 253 257 260 261 262 262 262 265 269 274 278 281 283 282 282 282 282 282 282 281 280 282 286 289 292 296 300 304 305 303 300 298 298 299 304 306 305 302 300 300 302 303 303 302 301 301 301 301 301 299 298 298 297 298 298 298 298 299 298 298 297 297 296 294 293 293 292 292 292 292 292 292 292 291 291 290 290 289 288 288 287 287
248 252 254 254 254 255 259 262 263 262 260 261 265 269 274 278 280 280 280 280 280 279 279 278 279 282 285 287 288 290 293 296 296 296 296 295 294 297 303 307 306 303 300 300 302 302 302 301 300 300 301 300 299 298 297 297 297 297 298 298 299 299 299 298 297 296 295 294 293 292 292 292 292 292 293 293 292 291 291 290 290 289 288 288 287 287
249 251 254 255 255 255 257 259 260 259 258 259 261 265 269 272 274 276 278 278 278 278 279 280 282 283 284 284 285 287 289 291 290 288 287 288 292 297 304 308 307 302 299 299 301 302 302 300 300 300 300 299 298 297 296 297 297 297 298 298 298 298 298 298 297 296 295 295 294 293 293 293 293 293 293 292 292 291 291 290 289 289 289 288 288 288
254 256 258 258 257 257 257 257 258 259 260 262 264 266 269 270 271 272 273 275 276 278 281 284 286 286 286 285 285 285 286 287 284 281 281 285 290 295 302 306 305 301 298 299 301 302 302 300 299 298 298 298 297 297 296 296 296 297 297 297 298 298 298 298 298 297 297 296 296 295 295 294 294 294 293 292 292 291 290 290 290 289 289 289 288 288
257 259 260 260 261 260 260 261 262 263 264 266 267 268 269 270 270 270 272 272 274 278 282 286 287 286 286 285 282 280 282 283 281 280 283 288 292 295 299 302 302 299 298 299 302 303 301 299 298 298 297 297 297 297 297 297 297 296 297 297 298 298 299 299 299 299 299 298 297 297 296 295 294 294 293 292 291 291 290 290 290 289 289 289 289 288
257 258 260 261 262 262 262 263 263 264 264 265 265 266 267 267 268 268 268 269 271 276 282 283 282 281 281 280 278 278 281 283 282 282 286 290 293 295 297 300 300 298 298 300 302 303 301 298 297 297 297 297 297 298 299 298 297 296 297 297 297 299 299 300 300 300 299 298 298 297 296 295 295 294 293 292 291 291 290 290 289 289 289 289 289 289
257 258 259 260 261 261 262 262 262 262 262 262 262 262 263 264 264 263 262 264 268 271 273 275 276 278 278 277 276 279 283 286 285 286 287 289 290 291 294 298 300 300 300 301 302 302 300 297 295 295 295 296 298 300 300 300 299 296 295 295 296 297 297 298 298 299 298 298 297 297 296 296 295 294 294 293 292 291 291 290 290 290 290 290 290 289
258 258 259 260 261 262 262 262 263 263 263 262 261 260 260 260 259 258 257 261 264 265 265 267 270 275 278 279 281 285 287 287 287 288 289 286 283 284 290 297 301 303 304 303 303 302 299 295 293 294 295 297 299 301 300 298 296 294 293 293 294 295 296 297 298 298 298 297 297 297 296 296 295 294 294 293 293 292 292 292 291 292 292 291 289 288
258 259 259 260 261 262 262 263 263 263 263 263 262 260 258 257 256 256 258 260 261 261 262 263 265 270 278 285 289 290 289 288 288 289 289 283 279 281 290 298 303 305 308 307 306 304 300 296 294 295 296 298 299 298 296 294 293 293 294 295 297 297 298 298 298 298 297 297 297 296 296 295 295 295 295 295 294 294 294 294 293 293 292 291 289 288
258 258 258 258 259 260 261 262 262 263 263 262 261 259 256 254 254 255 257 258 258 258 260 262 263 268 279 288 293 292 289 288 289 290 289 285 283 287 296 301 303 305 308 310 310 306 302 300 298 297 297 298 297 295 295 295 296 297 298 299 300 300 300 299 299 298 297 297 296 296 296 296 297 297 297 297 296 296 295 295 295 294 293 291 290 289
258 258 257 257 258 259 259 260 261 262 262 262 260 257 254 252 252 253 255 255 254 254 256 258 261 267 275 284 289 290 287 289 290 291 292 291 289 291 298 300 301 302 305 306 308 309 305 303 301 300 299 298 297 297 297 298 300 301 301 302 301 301 300 300 299 298 297 297 297 297 297 297 298 298 298 297 297 296 296 295 295 294 292 291 290 289
257 257 256 256 258 259 259 259 260 261 260 259 258 255 252 250 249 250 251 252 252 252 252 254 258 263 268 269 269 271 278 284 286 288 291 290 289 291 295 297 298 299 300 298 293 290 296 299 300 300 300 299 298 298 299 299 300 301 301 301 300 300 301 301 301 299 297 297 297 297 297 297 297 297 297 296 296 295 295 294 294 293 291 290 289 289
256 254 254 255 257 258 259 260 260 259 258 257 256 255 253 250 248 248 248 249 249 250 250 252 256 261 264 265 266 268 273 277 281 284 287 287 288 290 293 294 295 297 298 296 290 285 281 285 293 297 299 299 298 298 298 299 299 300 300 300 300 301 302 302 301 299 297 297 297 297 297 297 297 297 296 295 295 294 294 293 292 291 290 290 290 289
258 256 255 256 257 258 260 260 260 259 257 256 256 256 256 254 252 250 248 247 246 247 248 249 252 257 261 265 267 269 272 275 278 282 283 283 285 288 291 293 294 296 297 296 293 289 284 284 288 294 298 298 297 297 297 297 298 300 301 301 301 301 302 301 300 299 298 298 298 299 299 300 300 300 299 297 295 293 293 292 291 290 289 289 289 290
259 258 257 256 257 258 259 259 259 258 256 256 256 256 257 257 256 253 250 247 246 246 247 248 250 253 256 260 265 269 272 276 279 281 281 281 283 287 290 290 292 294 295 294 293 292 290 288 289 292 296 298 298 297 296 297 299 301 301 300 299 298 298 299 299 299 299 299 299 300 300 301 302 301 300 299 296 293 292 291 291 290 289 288 287 287
252 253 254 253 253 254 255 254 254 253 253 253 254 255 256 257 256 254 252 251 250 249 249 250 251 253 256 259 261 266 271 276 280 281 280 280 282 285 287 286 288 290 291 291 290 290 289 290 290 291 292 294 296 297 298 300 301 302 301 300 299 298 298 298 299 300 300 300 299 299 300 301 300 299 298 296 294 293 292 291 290 289 288 287 285 284
246 248 249 248 249 251 251 250 249 248 247 248 250 251 251 251 251 251 251 250 250 249 249 250 252 255 259 261 263 266 271 276 279 279 278 278 279 280 281 282 284 285 285 286 287 288 288 289 291 291 290 288 290 294 299 302 303 303 301 301 301 300 300 301 301 301 300 299 298 298 298 299 298 297 297 296 295 294 293 292 291 289 288 287 285 282
243 244 244 244 245 247 248 247 246 245 245 245 245 246 246 246 245 245 245 245 246 247 249 251 255 258 262 264 266 269 272 275 276 277 277 277 277 277 277 279 281 281 279 278 280 282 284 285 288 290 290 288 288 290 295 300 302 302 302 302 302 301 301 302 303 303 301 299 298 298 297 297 297 297 297 297 297 296 295 294 293 292 290 288 286 283
243 244 244 243 243 244 244 245 245 245 245 244 243 243 243 242 242 242 242 244 245 248 251 254 258 261 263 266 268 270 271 273 274 275 276 276 276 275 275 276 277 277 276 275 274 274 275 276 278 281 286 289 291 293 294 296 298 300 302 304 304 302 301 303 303 302 300 298 297 297 297 298 298 298 298 298 298 297 295 294 293 292 291 290 288 286
252 251 250 248 247 245 244 244 245 245 244 242 241 240 238 237 237 239 241 244 247 250 253 256 259 262 265 268 269 271 272 273 275 276 276 277 277 276 275 273 273 274 275 273 270 269 268 269 272 275 279 283 288 292 294 295 296 298 302 304 304 303 303 303 302 300 299 298 297 297 298 299 300 299 298 297 296 295 293 293 292 291 291 290 289 288
268 266 264 263 261 257 252 249 247 245 242 239 236 234 232 232 233 236 240 244 246 249 252 256 260 264 267 269 271 272 273 274 275 276 277 278 279 279 277 273 271 270 270 270 268 266 264 266 269 272 275 279 283 287 289 291 293 296 299 299 298 299 301 301 300 300 300 299 299 299 299 299 299 298 297 296 294 293 292 291 291 290 290 288 286 285
265 267 269 271 272 269 264 257 250 244 239 236 233 231 231 231 233 235 238 240 243 246 251 255 260 264 266 268 270 271 272 273 275 277 279 280 281 281 279 275 271 267 266 265 265 264 264 265 267 269 273 277 281 285 287 289 291 293 294 294 296 299 301 300 300 300 301 300 300 300 299 298 297 296 296 295 294 293 292 291 289 288 287 286 284 282
259 262 265 267 269 268 265 257 249 243 239 236 233 232 233 234 235 236 237 239 242 247 252 256 259 262 264 267 269 271 273 274 276 278 280 282 283 282 280 277 273 268 264 261 261 264 266 266 265 267 270 274 278 280 283 287 290 292 292 293 295 298 299 299 301 302 301 300 299 298 297 297 296 296 295 294 293 293 292 290 288 286 284 283 282 281
258 261 263 264 264 262 256 248 242 239 236 233 233 233 235 235 235 236 237 240 244 249 254 256 258 260 262 266 270 274 276 279 281 282 283 284 285 284 282 279 275 270 263 256 256 261 266 267 267 268 270 272 274 276 280 284 287 290 291 292 292 291 290 294 298 300 300 299 298 297 296 297 297 296 296 294 293 292 291 290 288 286 285 284 283 282
255 258 260 261 260 256 248 242 238 236 233 232 232 232 233 233 233 234 235 240 245 248 251 252 254 257 261 265 271 276 280 283 285 286 286 286 286 284 281 279 276 271 265 258 255 256 260 265 269 272 274 274 273 274 277 281 284 287 290 291 291 290 288 290 294 296 297 297 297 296 297 298 298 297 296 295 294 292 291 290 289 288 287 286 285 284
251 253 255 256 255 251 245 240 235 231 229 229 229 230 231 232 233 235 237 240 243 245 247 247 248 252 258 266 272 278 283 287 288 289 290 290 289 285 281 278 276 272 267 262 259 258 258 262 267 273 277 277 275 274 276 278 281 285 287 290 291 292 291 292 293 294 295 295 295 296 297 298 297 295 294 294 294 293 292 291 290 290 290 289 288 287
248 250 251 253 252 250 246 241 235 229 226 226 228 230 231 233 234 236 238 240 241 242 243 244 245 248 255 263 270 277 282 286 289 291 292 293 293 289 283 279 277 275 272 269 266 264 263 265 266 268 272 275 276 277 278 278 280 282 286 289 291 292 292 292 293 293 294 294 294 295 297 297 296 294 294 295 296 295 294 293 292 291 291 290 289 288
246 248 250 251 251 250 247 243 236 231 228 228 231 233 234 235 236 236 236 237 238 238 239 241 244 249 255 261 268 273 278 283 286 289 291 292 292 290 287 283 280 278 276 275 273 271 269 269 268 267 267 268 272 276 279 280 280 281 283 286 288 289 290 291 292 293 293 293 293 294 296 295 295 297 299 299 299 297 296 294 293 292 291 290 289 289
247 247 249 250 251 251 249 246 241 237 235 235 236 237 238 239 237 235 235 235 235 235 236 239 243 249 256 263 268 273 276 279 282 285 286 288 289 289 288 287 285 284 282 280 279 277 275 273 271 268 265 264 266 271 275 277 279 281 282 283 284 285 286 289 291 293 294 294 295 296 298 297 298 300 301 300 298 297 296 295 294 293 292 291 290 289
248 248 249 250 250 251 250 248 245 243 241 241 240 241 241 240 237 235 234 234 233 234 236 239 243 249 257 264 270 274 276 278 279 280 282 284 286 287 287 288 289 288 286 285 284 283 282 281 279 275 269 264 263 265 269 274 277 280 281 281 282 283 285 288 291 293 295 297 298 300 301 301 301 300 300 298 296 295 295 295 294 294 293 293 292 290
251 250 250 249 249 249 249 248 247 245 244 243 242 242 241 238 234 231 230 231 232 234 237 241 245 250 257 264 270 273 274 275 275 276 278 281 283 284 284 285 286 286 287 287 288 289 290 290 288 286 281 273 265 262 265 271 276 280 281 282 284 286 287 289 292 295 297 299 300 301 302 301 300 299 298 296 295 295 295 294 294 294 295 295 295 293